Zurück zum Katalog

OPTISAT

AktivWissenschaftSSO
NORAD 68418·PAYLOAD·🇬🇷 Greece

Gestartet Mar 30, 2026 von Vandenberg Space Force Base

Loading…

Nächste Überflüge (nächste 24 Stunden)

TLE

AktuellSource: Space-Track

Epoche: Sep 14, 2026, 14:43 UTC

1 68418U 26067C   26257.61359582  .00003993  00000-0  19054-3 0  9995
2 68418  97.4684 215.1374 0002648  27.7078 332.4297 15.19647365 25522

Verfolge OPTISAT in Echtzeit mit AllMySat

Download on the App Store